GEC8345 EDDM-EDDF

Flight info

Callsign GEC8345
Flight time N/A
Altitude 24000
Route GIVMI6S/26L GIVMI Y101 ERNAS T161 DEBHI DEBHI1B
Aircraft MD11/H-SDE1E2E3FGHIJ2J3J4J5M1RWXY/LB1D1

Departure

Time 2026-05-07 11:54
Airport Munich Airport (EDDM)

Arrival

Time N/A
Airport Frankfurt Main Airport (EDDF)
Time Latitude Longitude Altitude Speed Heading
2026-05-07 11:31 48.34891 11.77280 1485 ft 0 kts 353°
2026-05-07 11:40 48.34884 11.77282 1481 ft 4 kts 353°
2026-05-07 11:41 48.34857 11.77286 1493 ft 4 kts 353°
2026-05-07 11:41 48.34836 11.77290 1490 ft 4 kts 354°
2026-05-07 11:41 48.34811 11.77290 1493 ft 4 kts 25°
2026-05-07 11:41 48.34795 11.77273 1481 ft 4 kts 71°
2026-05-07 11:42 48.34791 11.77238 1493 ft 4 kts 83°
2026-05-07 11:42 48.34789 11.77219 1493 ft 0 kts 83°
2026-05-07 11:47 48.34790 11.77223 1477 ft 3 kts 83°
2026-05-07 11:47 48.34797 11.77316 1478 ft 15 kts 83°
2026-05-07 11:48 48.34786 11.77370 1493 ft 5 kts 130°
2026-05-07 11:48 48.34754 11.77395 1493 ft 6 kts 167°
2026-05-07 11:48 48.34708 11.77406 1479 ft 7 kts 173°
2026-05-07 11:48 48.34654 11.77421 1493 ft 6 kts 156°
2026-05-07 11:49 48.34636 11.77467 1493 ft 6 kts 108°
2026-05-07 11:49 48.34635 11.77542 1487 ft 6 kts 81°
2026-05-07 11:49 48.34644 11.77634 1481 ft 12 kts 80°
2026-05-07 11:49 48.34666 11.77784 1478 ft 17 kts 75°
2026-05-07 11:50 48.34679 11.77958 1482 ft 18 kts 89°
2026-05-07 11:50 48.34684 11.78170 1481 ft 22 kts 83°
2026-05-07 11:50 48.34707 11.78427 1490 ft 27 kts 83°
2026-05-07 11:50 48.34730 11.78728 1483 ft 31 kts 83°
2026-05-07 11:51 48.34754 11.79063 1493 ft 31 kts 84°
2026-05-07 11:51 48.34777 11.79366 1486 ft 29 kts 83°
2026-05-07 11:51 48.34786 11.79537 1478 ft 1 kts 105°
2026-05-07 11:51 48.34777 11.79546 1493 ft 4 kts 144°
2026-05-07 11:52 48.34713 11.79555 1493 ft 17 kts 175°
2026-05-07 11:52 48.34623 11.79538 1479 ft 6 kts 216°
2026-05-07 11:52 48.34598 11.79490 1483 ft 6 kts 235°
2026-05-07 11:52 48.34543 11.79375 1480 ft 20 kts 233°
2026-05-07 11:53 48.34456 11.79202 1489 ft 21 kts 233°
2026-05-07 11:53 48.34379 11.79027 1486 ft 20 kts 248°
2026-05-07 11:53 48.34360 11.78893 1493 ft 0 kts 263°
2026-05-07 11:53 48.34337 11.78596 1482 ft 80 kts 263°
2026-05-07 11:54 48.34231 11.77224 1570 ft 173 kts 264°
2026-05-07 11:54 48.34083 11.75345 2515 ft 185 kts 263°
2026-05-07 11:54 48.33916 11.73335 3605 ft 199 kts 264°
2026-05-07 11:54 48.33757 11.71464 4844 ft 171 kts 263°
2026-05-07 11:55 48.33616 11.69539 5675 ft 199 kts 264°
2026-05-07 11:55 48.33459 11.67332 6455 ft 224 kts 264°
2026-05-07 11:55 48.33328 11.64949 7211 ft 231 kts 269°
2026-05-07 11:55 48.33625 11.62521 7979 ft 254 kts 292°
2026-05-07 11:56 48.34552 11.60112 8761 ft 273 kts 303°
2026-05-07 11:56 48.35687 11.57766 9503 ft 281 kts 306°
2026-05-07 11:56 48.36877 11.55399 10263 ft 285 kts 306°
2026-05-07 11:56 48.38083 11.53010 11020 ft 287 kts 306°
2026-05-07 11:57 48.39296 11.50598 11777 ft 289 kts 305°
2026-05-07 11:57 48.40511 11.48166 12535 ft 292 kts 305°
2026-05-07 11:57 48.41791 11.45815 13269 ft 298 kts 313°
2026-05-07 11:57 48.43542 11.43949 14037 ft 321 kts 334°
2026-05-07 11:58 48.45747 11.42905 14807 ft 342 kts 346°
2026-05-07 11:58 48.48123 11.42218 15551 ft 360 kts 348°
2026-05-07 11:58 48.50653 11.41588 16318 ft 375 kts 349°
2026-05-07 11:58 48.53280 11.40937 17077 ft 388 kts 349°
2026-05-07 11:59 48.55980 11.40244 17832 ft 398 kts 349°
2026-05-07 11:59 48.58734 11.39519 18588 ft 404 kts 348°
2026-05-07 11:59 48.61522 11.38765 19333 ft 408 kts 348°
2026-05-07 11:59 48.63377 11.38256 19839 ft 411 kts 348°
2026-05-07 12:00 48.67157 11.37212 20843 ft 416 kts 348°
2026-05-07 12:00 48.69946 11.36194 21586 ft 419 kts 338°
2026-05-07 12:00 48.72588 11.34295 22349 ft 421 kts 328°
2026-05-07 12:00 48.75085 11.31894 22860 ft 427 kts 324°
2026-05-07 12:01 48.76707 11.30186 23112 ft 429 kts 323°
2026-05-07 12:01 48.79144 11.27550 23488 ft 431 kts 322°
2026-05-07 12:01 48.81598 11.24909 23848 ft 434 kts 323°
2026-05-07 12:01 48.84065 11.22240 23984 ft 434 kts 321°
2026-05-07 12:02 48.86330 11.19441 24004 ft 403 kts 317°
2026-05-07 12:02 48.88357 11.16680 24010 ft 382 kts 315°
2026-05-07 12:02 48.90268 11.13979 24015 ft 377 kts 315°
2026-05-07 12:02 48.92179 11.11258 24017 ft 376 kts 315°
2026-05-07 12:03 48.94091 11.08544 24016 ft 376 kts 315°
2026-05-07 12:03 48.96010 11.05830 24017 ft 375 kts 315°
2026-05-07 12:03 48.97931 11.03122 24017 ft 375 kts 315°
2026-05-07 12:03 48.99829 11.00451 24017 ft 375 kts 315°
2026-05-07 12:04 49.01751 10.97747 24023 ft 375 kts 315°
2026-05-07 12:04 49.03672 10.95047 24026 ft 375 kts 315°
2026-05-07 12:04 49.05589 10.92354 24027 ft 375 kts 315°
2026-05-07 12:04 49.07486 10.89686 24027 ft 375 kts 315°
2026-05-07 12:05 49.09405 10.86976 24026 ft 375 kts 315°
2026-05-07 12:05 49.11329 10.84260 24027 ft 375 kts 315°
2026-05-07 12:05 49.13225 10.81580 24026 ft 375 kts 315°
2026-05-07 12:05 49.15140 10.78870 24027 ft 375 kts 315°
2026-05-07 12:06 49.17057 10.76158 24026 ft 375 kts 316°
2026-05-07 12:06 49.18965 10.73439 24026 ft 375 kts 315°
2026-05-07 12:06 49.20821 10.70647 24026 ft 374 kts 313°
2026-05-07 12:06 49.22651 10.67788 24027 ft 374 kts 313°
2026-05-07 12:07 49.24461 10.64923 24027 ft 375 kts 313°
2026-05-07 12:07 49.26249 10.62087 24027 ft 375 kts 313°
2026-05-07 12:07 49.28066 10.59204 24026 ft 375 kts 313°
2026-05-07 12:07 49.29879 10.56329 24027 ft 375 kts 313°
2026-05-07 12:08 49.31696 10.53453 24027 ft 375 kts 313°
2026-05-07 12:08 49.33509 10.50576 24026 ft 375 kts 313°
2026-05-07 12:08 49.35320 10.47692 24027 ft 375 kts 311°
2026-05-07 12:08 49.36982 10.44683 24026 ft 374 kts 306°
2026-05-07 12:09 49.38188 10.42190 24027 ft 374 kts 304°